This is the latest recevied weather packets stored in our database for station/object OE3CJB-13. If no packets are shown the sender has not sent any weather packets the latest 10 day(s).
| Time | Temp. | Humidity | Pressure | Rain* | Wind** | Luminosity | Snow |
|---|---|---|---|---|---|---|---|
| 1787502666 | 25.56° C | 16% | 1194.8 hPa | 0 mm | - | - | - |
| 1787501753 | 26.11° C | 16% | 1193.3 hPa | 0 mm | - | - | - |
| 1787500867 | 26.11° C | 17% | 1193.4 hPa | 0 mm | - | - | - |
| 1787499965 | 26.67° C | 16% | 1194.1 hPa | 0 mm | - | - | - |
| 1787499015 | 26.67° C | 16% | 1195.6 hPa | 0 mm | - | - | - |
| 1787498165 | 26.67° C | 16% | 1195.7 hPa | 0 mm | - | - | - |
| 1787497242 | 26.11° C | 17% | 1197.4 hPa | 0 mm | - | - | - |
| 1787496328 | 26.11° C | 18% | 1198 hPa | 0 mm | - | - | - |
| 1787495416 | 26.11° C | 18% | 1198.9 hPa | 0 mm | - | - | - |
| 1787494552 | 25.56° C | 19% | 1199.7 hPa | 0 mm | - | - | - |
| 1787493667 | 25.56° C | 19% | 1199.8 hPa | 0 mm | - | - | - |
| 1787492727 | 25.56° C | 20% | 1200.5 hPa | 0 mm | - | - | - |
| 1787491815 | 26.67° C | 20% | 1199.8 hPa | 0 mm | - | - | - |
| 1787490951 | 27.22° C | 19% | 1200.6 hPa | 0 mm | - | - | - |
| 1787490044 | 26.67° C | 22% | 1200.7 hPa | 0 mm | - | - | - |
| 1787489128 | 26.11° C | 25% | 1200 hPa | 0 mm | - | - | - |
| 1787488216 | 24.44° C | 25% | 1200.1 hPa | 0 mm | - | - | - |
| 1787487352 | 23.89° C | 28% | 1199.6 hPa | 0 mm | - | - | - |
| 1787486467 | 23.89° C | 27% | 1199.6 hPa | 0 mm | - | - | - |
| 1787485565 | 23.89° C | 28% | 1199.6 hPa | 0 mm | - | - | - |
| 1787484666 | 23.89° C | 26% | 1199.8 hPa | 0 mm | - | - | - |
| 1787483751 | 24.44° C | 28% | 1200.7 hPa | 0 mm | - | - | - |
| 1787482842 | 24.44° C | 29% | 1200.7 hPa | 0 mm | - | - | - |
| 1787481927 | 23.89° C | 32% | 1200.2 hPa | 0 mm | - | - | - |
| 1787481015 | 23.33° C | 32% | 1200.4 hPa | 0 mm | - | - | - |
* Rain latest hour (hover to see other rain measurements)
** Current wind speed in m/s (hover to see current wind gust speed)